EHI
0 0 0 0 0 0 0 1 6 29 64 89 98 97 89 69 39 19 8 2 0 0 0 0 0 0 0 0 0 0 0 0 0 0 0 0 0 0 0 0 0 0 0
0 0 0 0 0 0 0 0 3 18 47 75 88 84 72 54 34 17 7 1 0 0 0 0 0 0 0 0 0 0 0 0 0 0 0 0 0 0 0 0 0 0 0
0 0 0 0 0 0 0 0 0 6 24 52 67 57 39 26 18 12 6 1 0 0 0 0 0 0 0 0 0 0 0 0 0 0 0 0 0 0 0 0 0 0 0
0 0 0 0 0 0 0 0 0 1 11 32 48 42 24 11 7 7 4 1 0 0 0 0 0 0 0 0 0 0 0 0 0 0 0 0 0 0 0 0 0 0 0
0 0 0 0 0 0 0 0 0 0 5 21 38 38 24 11 5 3 1 0 0 0 0 0 0 0 0 0 0 0 0 0 0 0 0 0 0 0 0 0 0 0 0
0 0 0 0 0 0 0 0 0 0 3 13 26 29 19 8 2 0 0 0 0 0 0 0 0 0 0 0 0 0 0 0 0 0 0 0 0 0 0 0 0 0 0
0 0 0 0 0 0 0 0 0 0 1 6 13 16 13 6 1 0 0 0 0 0 0 0 0 0 0 0 0 0 0 0 0 0 0 0 0 0 0 0 0 0 0
0 0 0 0 0 0 0 0 0 0 0 1 3 6 6 3 0 0 0 0 0 0 0 0 0 0 0 0 0 0 0 0 0 0 0 0 0 0 0 0 0 0 0
0 0 0 0 0 0 0 0 0 0 0 0 0 1 2 1 0 0 0 0 0 0 0 0 0 0 0 0 0 0 0 0 0 0 0 0 0 0 0 0 0 0 0
0 0 0 0 0 0 0 0 0 0 0 0 0 0 0 0 0 0 0 0 0 0 0 0 0 0 0 0 0 0 0 0 0 0 0 0 0 0 0 0 0 0 0
0 0 0 0 0 0 0 0 0 0 0 0 0 0 0 0 0 0 0 0 0 0 0 0 0 0 0 0 0 0 0 0 0 0 0 0 0 0 0 0 0 0 0
0 0 0 0 0 0 0 0 0 0 0 0 0 0 0 0 0 0 0 0 0 0 0 0 0 0 0 0 0 0 0 0 0 0 0 0 0 0 0 0 0 0 0
0 0 0 0 0 0 0 0 0 0 0 0 0 0 0 0 0 0 0 0 0 0 0 0 0 0 0 0 0 0 0 0 0 0 0 0 0 0 0 0 0 0 0
0 0 0 0 0 0 0 0 0 0 0 0 0 0 0 0 0 0 0 0 0 0 0 0 0 0 0 0 0 0 0 0 0 0 0 0 0 0 0 0 0 0 0
0 0 0 0 0 0 0 0 0 0 0 0 0 0 0 0 0 0 0 0 0 0 0 0 0 0 0 0 0 0 0 0 0 0 0 0 0 0 0 0 0 0 0
0 0 0 0 0 0 0 0 0 0 0 0 0 0 0 0 0 0 0 0 0 0 0 0 0 0 0 0 0 0 0 0 0 0 0 0 0 0 0 0 0 0 0
0 0 0 0 0 0 0 0 0 0 0 0 0 0 0 0 0 0 0 0 0 0 0 0 0 0 0 0 0 0 0 0 0 0 0 0 0 0 0 0 0 0 0
0 0 0 0 0 0 0 0 0 0 0 0 0 0 0 0 0 0 0 0 0 0 0 0 0 0 0 0 0 0 0 0 0 0 0 0 0 0 0 0 0 0 0
0 0 0 0 0 0 0 0 0 0 0 0 0 0 0 0 0 0 0 0 0 0 0 0 0 0 0 0 0 0 0 0 0 0 0 0 0 0 0 0 0 0 0
0 0 0 0 0 0 0 0 0 0 0 0 0 0 0 0 0 0 0 0 0 0 0 0 0 0 0 0 0 0 0 0 0 0 0 0 0 0 0 0 0 0 0
0 0 0 0 0 0 0 0 0 0 0 0 0 0 0 0 0 0 0 0 0 0 0 0 0 0 0 0 0 0 0 0 0 0 0 0 0 0 0 0 0 0 0
0 0 0 0 0 0 0 0 0 0 0 0 0 0 0 0 0 0 0 0 0 0 0 0 0 0 0 0 0 0 0 0 0 0 0 0 0 0 0 0 0 0 0
0 0 0 0 0 0 0 0 0 0 0 0 0 0 0 0 0 0 0 0 0 0 0 0 0 0 0 0 0 0 0 0 0 0 0 0 0 0 0 0 0 0 0
0 0 0 0 0 0 0 0 0 0 0 0 0 0 0 0 0 0 0 0 0 0 0 0 0 0 0 0 0 0 0 0 0 0 0 0 0 0 0 0 0 0 0
0 0 0 0 0 0 0 0 0 0 0 0 0 0 0 0 0 0 0 0 0 0 0 0 0 0 0 0 0 0 0 0 0 0 0 0 0 0 0 0 0 0 0
0 0 0 0 0 0 0 0 0 0 0 0 0 0 0 0 0 0 0 0 0 0 0 0 0 0 0 0 0 0 0 0 0 0 0 0 0 0 0 0 0 0 0
Wind_Speed
13 9 8 8 8 7 7 9 11 12 11 9 10 9 10 10 9 8 11 12 12 12 10 9 8 7 6 6 6 4 4 2 1 3 2 3 2 1 1 2 2 2 2
11 10 9 7 7 7 7 7 9 10 11 11 11 9 9 7 8 7 9 12 13 13 11 12 10 8 6 6 5 4 3 2 1 3 3 1 2 2 1 0 1 1 2
15 12 10 10 8 8 8 8 9 10 10 10 6 4 4 3 2 6 8 10 13 13 13 13 11 9 8 7 6 5 6 4 1 1 3 4 4 2 2 2 2 2 2
13 11 10 9 9 9 7 7 7 8 9 10 10 12 10 9 9 9 7 8 11 13 13 13 13 11 8 8 7 5 4 5 3 2 2 2 3 3 1 2 2 1 1
10 9 8 7 6 6 5 5 6 6 8 11 13 14 10 8 5 6 8 8 7 9 12 13 12 11 9 9 7 6 5 4 4 3 2 2 2 2 2 2 3 3 2
6 6 5 3 3 2 2 3 4 5 7 10 13 15 13 11 11 10 11 9 6 7 10 11 11 11 10 10 8 7 7 4 5 3 3 3 3 2 2 2 3 3 3
4 4 4 3 3 2 2 2 2 4 6 10 12 14 15 16 18 15 14 12 9 7 12 11 10 10 10 9 9 8 7 6 6 4 3 3 2 3 3 2 2 2 3
4 4 4 4 4 3 2 2 3 5 6 9 11 11 12 11 10 12 13 12 10 8 10 11 10 10 11 11 9 7 6 5 6 5 4 3 2 2 3 3 2 1 3
7 7 6 5 5 4 4 4 5 6 7 8 9 10 11 11 11 11 9 8 8 8 10 11 11 11 10 10 9 6 6 6 4 5 4 3 2 3 3 3 3 3 2
8 8 7 7 6 5 5 5 5 6 7 8 9 9 10 10 11 11 12 11 11 11 13 12 12 11 10 10 8 7 6 6 4 3 4 3 2 3 3 3 3 3 4
11 10 8 7 7 6 5 5 5 5 6 7 8 10 10 10 11 11 12 12 12 13 13 13 12 12 11 10 8 7 7 6 4 4 4 3 3 3 3 2 2 3 4
12 11 9 8 7 7 6 6 6 6 6 7 9 11 11 12 12 11 12 13 14 13 13 13 12 11 10 9 9 8 6 6 5 4 3 3 3 3 3 3 3 4 4
14 11 9 7 6 6 6 6 6 6 5 7 10 11 11 12 12 12 13 14 14 13 13 12 12 10 9 8 7 7 5 5 4 3 3 3 3 4 3 4 4 4 5
12 10 8 7 6 5 5 5 5 3 3 7 9 10 10 11 12 13 13 14 14 14 12 11 11 10 9 8 7 6 5 5 4 2 1 2 4 4 5 4 5 5 4
11 9 7 6 4 3 3 2 3 3 5 7 8 9 10 12 13 14 13 13 13 13 13 13 11 10 8 7 7 6 5 4 2 1 1 2 4 6 5 5 4 4 4
12 9 7 4 2 2 3 5 7 7 9 10 11 12 13 14 15 15 15 15 14 14 13 12 11 8 6 10 9 6 3 2 1 1 2 3 4 6 9 10 11 11 6
12 9 6 4 4 5 7 8 9 11 12 13 13 13 15 16 16 16 16 15 13 12 12 10 9 8 8 9 7 6 3 2 1 2 2 2 3 6 4 8 12 12 14
10 9 7 8 8 9 10 11 12 13 14 14 13 14 15 16 16 16 15 13 10 10 9 8 7 6 6 7 6 6 3 2 1 1 1 2 4 6 7 6 6 6 7
7 7 7 8 9 10 11 13 13 13 14 13 13 13 14 15 15 14 12 10 9 8 7 6 6 5 5 7 5 5 2 0 1 2 2 4 4 11 14 8 6 7 8
6 7 8 9 10 10 11 13 12 12 13 12 12 11 12 13 13 12 10 8 7 7 6 5 4 5 4 5 4 4 2 1 2 3 3 7 9 13 14 8 7 9 8
6 7 8 8 8 8 10 12 11 11 10 10 11 11 11 11 11 10 8 7 6 6 5 4 3 2 2 2 2 1 2 2 2 3 3 4 14 15 16 14 7 11 12
6 6 7 7 7 7 9 11 10 8 9 10 11 11 10 9 8 8 7 6 6 6 4 3 3 2 2 2 3 5 5 5 2 3 3 6 15 16 16 12 13 17 13
5 6 7 7 7 7 8 10 8 8 10 11 10 9 9 7 6 7 7 5 5 4 3 3 2 1 2 3 6 7 9 11 5 4 11 14 15 14 9 12 16 12 5
6 6 7 8 7 8 8 9 8 8 10 10 9 8 8 7 6 5 5 4 4 3 3 2 1 1 2 2 3 3 4 7 7 6 9 12 12 10 11 10 8 5 5
6 6 7 8 8 8 8 7 7 8 9 9 7 7 6 6 5 4 3 4 2 3 3 2 1 1 2 4 7 5 3 4 5 5 2 2 4 4 5 5 5 5 6
7 7 7 8 8 8 7 6 6 7 9 8 6 5 4 4 4 4 3 5 3 4 4 3 3 3 4 7 9 11 12 13 12 6 3 4 4 5 7 7 8 7 7
Wind_Direction
260 263 254 245 243 244 228 211 206 206 198 189 187 187 193 192 189 185 175 169 164 161 155 152 151 148 146 149 140 121 106 79 82 94 58 18 28 119 181 188 178 190 182
263 259 254 249 240 239 233 219 211 207 203 198 193 192 191 191 187 174 170 170 166 165 161 158 159 155 143 144 147 134 122 98 74 126 118 73 346 335 6 331 167 136 93
253 253 251 249 245 240 234 227 217 209 204 200 181 142 105 85 132 169 174 174 170 168 164 163 159 158 155 161 161 150 141 142 98 94 142 152 200 265 328 9 54 98 95
249 248 245 245 244 244 243 240 230 215 203 191 181 174 178 180 186 182 173 168 171 169 165 163 161 160 157 158 161 153 146 138 142 113 76 119 143 152 270 326 353 25 82
250 249 246 238 240 244 247 252 249 233 210 195 191 191 191 180 158 152 153 161 166 168 165 163 161 160 157 156 150 144 140 136 146 149 137 109 79 102 145 259 311 330 315
254 242 237 217 226 243 250 258 258 248 221 204 198 197 186 162 154 160 165 165 162 163 166 165 162 159 155 154 148 142 139 133 130 130 132 141 144 154 153 202 260 283 291
250 236 220 209 212 224 244 258 263 261 231 209 205 202 189 175 174 172 172 168 169 170 172 164 160 156 151 145 141 138 136 134 134 133 125 124 131 137 143 162 230 274 290
308 278 253 232 229 230 236 257 263 258 237 215 209 202 186 179 178 175 171 173 174 168 162 155 151 148 146 142 138 134 131 130 132 134 133 129 134 135 145 155 159 282 296
327 310 294 274 254 248 245 244 254 256 238 216 201 190 180 175 170 166 157 154 146 146 149 148 145 145 142 139 136 135 130 130 130 137 137 132 136 134 138 143 154 179 259
325 314 305 294 281 267 265 264 256 247 236 210 193 183 178 171 162 156 156 154 150 149 148 147 145 142 137 135 131 130 133 131 134 140 140 141 152 151 153 161 171 176 197
303 296 287 282 284 287 285 283 278 262 231 202 183 168 165 159 156 159 157 151 146 147 149 148 145 142 139 136 136 137 140 138 138 142 156 170 169 171 182 185 192 204 200
292 284 275 271 276 284 286 280 277 259 231 195 171 164 157 155 155 154 150 146 144 144 144 143 140 139 137 137 140 143 143 142 146 151 159 183 185 193 200 206 221 228 222
293 284 274 264 266 274 281 281 279 262 225 178 160 154 153 153 150 145 142 141 139 138 137 137 135 133 131 128 127 126 127 127 132 145 173 202 201 217 222 227 235 240 247
300 291 280 272 271 281 286 289 291 265 184 155 148 147 146 141 136 133 133 133 133 131 128 123 119 119 116 113 111 110 108 105 100 100 166 222 218 225 231 237 242 246 256
316 309 294 283 287 299 320 1 20 54 98 111 115 116 115 115 117 117 117 117 116 115 112 108 105 103 102 104 106 105 105 102 92 62 328 278 254 245 251 251 243 238 245
324 319 315 311 322 22 49 54 53 59 78 90 96 101 105 106 105 105 104 103 102 103 104 105 104 98 101 113 112 112 106 103 83 350 327 306 289 289 302 302 297 291 282
334 340 349 15 46 60 71 71 70 73 78 83 89 96 101 100 100 101 99 98 98 99 100 102 103 101 110 118 120 119 119 94 44 359 339 329 325 333 305 295 298 297 296
359 12 31 50 58 68 75 80 81 83 85 88 90 93 97 98 98 97 97 97 98 100 100 103 110 117 136 142 141 126 106 80 39 8 332 304 301 303 298 276 274 267 275
20 33 46 61 66 72 81 85 85 88 90 92 94 97 101 103 103 103 102 103 105 104 108 119 133 145 160 162 152 138 129 125 295 291 300 310 296 305 309 303 289 283 279
35 49 57 66 72 76 86 89 90 92 94 97 98 99 102 105 106 107 107 106 110 116 123 127 144 157 172 186 178 161 175 246 283 293 297 313 315 309 310 302 290 290 286
49 59 66 70 75 83 91 94 94 95 99 99 97 95 97 101 105 104 107 115 118 118 115 112 106 130 186 217 250 259 191 248 295 306 304 300 314 313 312 312 301 295 303
62 70 75 73 71 81 92 93 91 95 98 97 96 96 97 101 106 109 109 109 111 107 103 102 88 50 19 353 331 337 339 334 303 297 288 290 308 314 319 320 310 312 323
82 80 84 80 72 76 92 98 98 103 102 100 100 99 95 93 100 106 105 95 95 103 107 113 109 57 19 358 360 348 336 328 319 288 300 307 315 323 325 315 316 324 321
99 99 97 92 86 87 93 101 108 107 105 102 98 96 95 89 80 81 92 102 110 114 117 117 106 30 347 320 302 294 302 309 304 293 298 314 325 326 318 316 316 306 292
110 105 104 103 100 99 99 99 102 105 102 97 94 89 87 90 85 80 91 110 126 143 138 145 159 194 282 288 313 320 291 281 281 310 327 333 322 318 313 308 302 300 306
118 114 111 111 108 105 99 92 97 110 113 106 95 91 92 88 88 88 68 69 85 90 110 166 199 241 275 309 328 327 325 328 331 346 333 317 315 313 315 316 314 311 305